| time (UTC) | temp F | wind direction | speed MPH | gust MPH | rain 1hr in | rain 24hr in | rain mn in | humidity % | barometer mb |
| 20260504194310 | 52 | 334 | 0.0 | 0.0 | 0.00 | 0.00 | 0.00 | 62 | 1014.6 |
| 20260504191310 | 52 | 334 | 0.0 | 0.0 | 0.00 | 0.00 | 0.00 | 61 | 1014.0 |
| 20260504184310 | 53 | 334 | 0.0 | 2.0 | 0.00 | 0.00 | 0.00 | 60 | 1013.3 |
| 20260504181310 | 54 | 358 | 0.0 | 0.0 | 0.00 | 0.00 | 0.00 | 58 | 1012.5 |
| 20260504174310 | 54 | 11 | 0.0 | 0.0 | 0.00 | 0.00 | 0.00 | 55 | 1011.6 |
| 20260504171310 | 56 | 349 | 0.0 | 0.0 | 0.00 | 0.00 | 0.00 | 50 | 1010.9 |
| 20260504141310 | 62 | 347 | 0.0 | 6.0 | 0.00 | 0.00 | 0.00 | 49 | 1006.2 |
| 20260504081310 | 73 | 239 | 14.0 | 31.0 | 0.00 | 0.00 | 0.00 | 51 | 995.6 |
| 20260504044310 | 81 | 232 | 12.0 | 54.0 | 0.00 | 0.00 | 0.00 | 49 | 993.5 |
| 20260504041310 | 81 | 209 | 10.0 | 31.0 | 0.00 | 0.00 | 0.00 | 50 | 993.9 |
| 20260504034310 | 82 | 326 | 12.0 | 37.0 | 0.00 | 0.00 | 0.00 | 52 | 994.4 |
| 20260504031310 | 81 | 207 | 9.0 | 27.0 | 0.00 | 0.00 | 0.00 | 54 | 994.7 |
| 20260504024310 | 81 | 259 | 13.0 | 17.0 | 0.00 | 0.00 | 0.00 | 54 | 994.9 |
| 20260504021310 | 81 | 266 | 10.0 | 21.0 | 0.00 | 0.00 | 0.00 | 57 | 994.9 |
| 20260504014310 | 80 | 208 | 12.0 | 19.0 | 0.00 | 0.00 | 0.00 | 60 | 994.7 |
| 20260504011310 | 79 | 284 | 16.0 | 33.0 | 0.00 | 0.00 | 0.00 | 63 | 995.0 |
| 20260504004310 | 78 | 201 | 9.0 | 37.0 | 0.00 | 0.00 | 0.00 | 70 | 995.0 |
| 20260504001310 | 76 | 196 | 13.0 | 27.0 | 0.00 | 0.00 | 0.00 | 76 | 995.4 |
| 20260503234310 | 76 | 234 | 9.0 | 23.0 | 0.00 | 0.00 | 0.00 | 78 | 995.3 |
| 20260503231310 | 75 | 277 | 13.0 | 29.0 | 0.00 | 0.00 | 0.00 | 81 | 995.7 |
| 20260503224310 | 75 | 238 | 14.0 | 33.0 | 0.00 | 0.00 | 0.00 | 82 | 995.3 |
| 20260503221310 | 75 | 206 | 10.0 | 37.0 | 0.00 | 0.00 | 0.00 | 83 | 995.0 |
| 20260503214310 | 71 | 220 | 8.0 | 8.0 | 0.00 | 0.00 | 0.00 | 84 | 996.4 |
| 20260503211310 | 71 | 220 | 8.0 | 8.0 | 0.00 | 0.00 | 0.00 | 84 | 996.4 |
| 20260503204310 | 71 | 220 | 8.0 | 8.0 | 0.00 | 0.00 | 0.00 | 84 | 996.4 |
| 20260503201310 | 71 | 220 | 8.0 | 8.0 | 0.00 | 0.00 | 0.00 | 84 | 996.5 |